VK5TRM-13 Weather Reports


time (UTC)temp
F
wind
direction
speed
knots
gust
knots
rain 1hr
in
rain 24hr
in
rain mn
in
humidity
%
barometer
mb
20260510131505 53 157 6.1 7.8 0.00 0.00 0.00 91 1030.0
20260510130005 53 180 7.0 7.8 0.00 0.00 0.00 90 1030.2
20260510124504 53 180 7.0 7.8 0.00 0.00 0.00 90 1030.2
20260510123004 54 180 6.1 7.8 0.00 0.00 0.00 88 1030.2
20260510121504 54 180 6.1 7.8 0.00 0.00 0.00 88 1030.2
20260510120005 55 180 7.0 7.8 0.00 0.00 0.00 85 1029.9
20260510114504 55 180 7.0 7.8 0.00 0.00 0.00 85 1029.9
20260510113005 56 180 7.8 11.3 0.00 0.00 0.00 81 1029.9
20260510111505 56 180 7.8 11.3 0.00 0.00 0.00 81 1029.9
20260510110005 56 180 6.1 7.0 0.00 0.00 0.00 81 1029.8
20260510104504 56 180 6.1 7.0 0.00 0.00 0.00 81 1029.8
20260510103005 58 157 6.1 7.0 0.00 0.00 0.00 76 1029.6
20260510101505 58 157 6.1 7.0 0.00 0.00 0.00 76 1029.6
20260510100005 56 180 5.2 6.1 0.00 0.00 0.00 84 1029.3
20260510094505 56 180 5.2 6.1 0.00 0.00 0.00 84 1029.3
20260510093004 55 180 4.3 5.2 0.00 0.00 0.00 81 1029.1
20260510091504 55 180 4.3 5.2 0.00 0.00 0.00 81 1029.1
20260510090005 59 0 0.0 0.0 0.00 0.00 0.00 73 1028.8
20260510084506 59 0 0.0 0.0 0.00 0.00 0.00 73 1028.8
20260510083004 62 180 2.6 4.3 0.00 0.00 0.00 64 1028.5
20260510081505 62 180 2.6 4.3 0.00 0.00 0.00 64 1028.5
20260510080005 66 180 4.3 6.1 0.00 0.00 0.00 55 1028.2
20260510074505 66 180 4.3 6.1 0.00 0.00 0.00 55 1028.2
20260510073004 67 157 4.3 6.1 0.00 0.00 0.00 54 1028.3
20260510071504 67 157 4.3 6.1 0.00 0.00 0.00 54 1028.3
20260510070004 68 135 2.6 5.2 0.00 0.00 0.00 52 1028.1
20260510064505 68 135 2.6 5.2 0.00 0.00 0.00 52 1028.1
20260510063005 68 180 6.1 10.4 0.00 0.00 0.00 53 1028.0
20260510061505 68 180 6.1 10.4 0.00 0.00 0.00 53 1028.0
20260510060005 67 135 6.1 7.8 0.00 0.00 0.00 54 1028.1
20260510054504 67 135 6.1 7.8 0.00 0.00 0.00 54 1028.1
20260510053004 67 157 5.2 7.8 0.00 0.00 0.00 56 1028.2
20260510051504 67 157 5.2 7.8 0.00 0.00 0.00 56 1028.2
20260510050004 68 202 7.0 10.4 0.00 0.00 0.00 56 1028.3
20260510044504 68 202 7.0 10.4 0.00 0.00 0.00 56 1028.3
20260510043005 67 157 5.2 7.8 0.00 0.00 0.00 58 1028.4
20260510041505 67 157 5.2 7.8 0.00 0.00 0.00 58 1028.4
20260510040004 66 202 5.2 7.8 0.00 0.00 0.00 61 1028.6
20260510034504 66 202 5.2 7.8 0.00 0.00 0.00 61 1028.6
20260510033004 65 157 6.1 8.7 0.00 0.00 0.00 61 1029.0
20260510031505 65 157 6.1 8.7 0.00 0.00 0.00 61 1029.0
20260510030005 65 157 7.0 8.7 0.00 0.00 0.00 61 1029.3
20260510024504 65 157 7.0 8.7 0.00 0.00 0.00 61 1029.3
20260510023004 64 157 7.0 8.7 0.00 0.00 0.00 64 1029.7
20260510021504 64 157 7.0 8.7 0.00 0.00 0.00 64 1029.7
20260510020005 63 180 2.6 7.0 0.00 0.00 0.00 68 1030.1
20260510014505 63 180 2.6 7.0 0.00 0.00 0.00 68 1030.1
20260510013005 61 135 2.6 6.1 0.00 0.00 0.00 73 1030.2
20260510011504 61 135 2.6 6.1 0.00 0.00 0.00 73 1030.2
20260510010004 59 135 2.6 6.1 0.00 0.00 0.00 77 1030.2
20260510004504 59 135 2.6 6.1 0.00 0.00 0.00 77 1030.2
20260510003005 56 157 5.2 7.0 0.00 0.00 0.00 80 1030.4
20260510001505 56 157 5.2 7.0 0.00 0.00 0.00 80 1030.4
20260510000004 55 135 5.2 6.1 0.00 0.00 0.00 85 1030.6
20260509234504 55 135 5.2 6.1 0.00 0.00 0.00 85 1030.6
20260509233004 52 157 0.9 5.2 0.00 0.00 0.00 95 1030.4
20260509231504 52 157 0.9 5.2 0.00 0.00 0.00 95 1030.4
20260509230005 49 157 2.6 4.3 0.00 0.00 0.00 96 1030.2
20260509224504 49 157 2.6 4.3 0.00 0.00 0.00 96 1030.2
20260509223004 48 180 4.3 5.2 0.00 0.00 0.00 97 1029.8
20260509221504 48 180 4.3 5.2 0.00 0.00 0.00 97 1029.8
20260509220005 41 180 1.7 4.3 0.00 0.00 0.00 96 1029.5
20260509214504 41 180 1.7 4.3 0.00 0.00 0.00 96 1029.5
20260509213004 40 0 0.0 0.0 0.00 0.00 0.00 95 1029.3
20260509211504 40 0 0.0 0.0 0.00 0.00 0.00 95 1029.3
20260509210005 40 0 0.0 0.0 0.00 0.00 0.00 95 1029.0
20260509204505 40 0 0.0 0.0 0.00 0.00 0.00 95 1029.0
20260509203004 40 0 0.0 0.0 0.00 0.00 0.00 94 1028.8
20260509201505 40 0 0.0 0.0 0.00 0.00 0.00 94 1028.8
20260509200005 41 180 0.9 2.6 0.00 0.00 0.00 95 1028.5
20260509194505 41 180 0.9 2.6 0.00 0.00 0.00 95 1028.5
20260509193004 44 0 0.0 0.0 0.00 0.00 0.00 95 1028.2
20260509191505 44 0 0.0 0.0 0.00 0.00 0.00 95 1028.2
20260509190006 45 180 2.6 4.3 0.00 0.00 0.00 95 1028.0
20260509184506 45 180 2.6 4.3 0.00 0.00 0.00 95 1028.0
20260509183004 45 180 4.3 5.2 0.00 0.00 0.00 95 1028.0
20260509181504 45 180 4.3 5.2 0.00 0.00 0.00 95 1028.0
20260509180005 41 0 0.0 4.3 0.00 0.00 0.00 91 1028.1
20260509174505 41 0 0.0 4.3 0.00 0.00 0.00 91 1028.1
20260509173004 42 0 0.0 0.0 0.00 0.00 0.00 91 1028.2
20260509171504 42 0 0.0 0.0 0.00 0.00 0.00 91 1028.2
20260509170005 42 225 2.6 4.3 0.00 0.00 0.00 91 1028.3
20260509164505 42 225 2.6 4.3 0.00 0.00 0.00 91 1028.3
20260509163005 44 225 4.3 5.2 0.00 0.00 0.00 91 1028.3
20260509161505 44 225 4.3 5.2 0.00 0.00 0.00 91 1028.3
20260509160005 46 0 0.0 0.0 0.00 0.00 0.00 90 1028.5
20260509154504 46 0 0.0 0.0 0.00 0.00 0.00 90 1028.5
20260509153004 48 225 2.6 4.3 0.00 0.00 0.00 88 1028.6
20260509151504 48 225 2.6 4.3 0.00 0.00 0.00 88 1028.6
20260509150005 51 225 5.2 6.1 0.00 0.00 0.00 91 1028.6
20260509144505 51 225 5.2 6.1 0.00 0.00 0.00 91 1028.6
20260509143005 46 180 4.3 6.1 0.00 0.00 0.00 90 1028.7
20260509141505 46 180 4.3 6.1 0.00 0.00 0.00 90 1028.7
20260509140005 45 0 0.0 0.0 0.00 0.00 0.00 89 1028.8
20260509134504 45 0 0.0 0.0 0.00 0.00 0.00 89 1028.8
20260509133004 46 0 0.0 2.6 0.00 0.00 0.00 88 1029.0